When you browse on this site, cookies collect data to enhance your experience and personalize the content and advertising you see.
Visit our Privacy Policy to learn more. By continuing to use the site, you agree to this use of cookies and data.
  • In Hungary
  • List of Countries
  • For 7 days
  • Water Temperature
  • Weather Map
  • News
  • Weather Widgets
  • user-avatar
    Login

    Hourly Weather Aligarh

    Today, 13 December, Friday

    Time Temperature Precipitation Wind Pressure Humidity
    00:00 +17°C° 0 mm 3 mps 743 mmHg 60%
    01:00 +16°C° 0 mm 3 mps 742 mmHg 62%
    02:00 +15°C° 0 mm 4 mps 742 mmHg 65%
    03:00 +16°C° 1.1 mm 3 mps 742 mmHg 70%
    04:00 +16°C° 1.1 mm 3 mps 742 mmHg 75%
    05:00 +16°C° 0 mm 2 mps 741 mmHg 83%
    06:00 +16°C° 1.5 mm 3 mps 742 mmHg 86%
    07:00 +17°C° 1.5 mm 3 mps 743 mmHg 88%
    08:00 +17°C° 1.5 mm 3 mps 743 mmHg 91%
    09:00 +18°C° 2.2 mm 3 mps 744 mmHg 84%
    10:00 +20°C° 2.2 mm 4 mps 744 mmHg 78%
    11:00 +21°C° 2.2 mm 4 mps 744 mmHg 71%
    12:00 +21°C° 1.2 mm 4 mps 743 mmHg 71%
    13:00 +21°C° 1.2 mm 3 mps 743 mmHg 70%
    14:00 +21°C° 1.2 mm 3 mps 742 mmHg 69%
    15:00 +20°C° 0.2 mm 3 mps 742 mmHg 73%
    16:00 +19°C° 0.2 mm 2 mps 742 mmHg 77%
    17:00 +18°C° 0.2 mm 2 mps 742 mmHg 81%
    18:00 +18°C° 0.1 mm 2 mps 743 mmHg 85%
    19:00 +17°C° 0.1 mm 2 mps 744 mmHg 89%
    20:00 +16°C° 0.1 mm 2 mps 745 mmHg 93%
    21:00 +16°C° 0 mm 2 mps 745 mmHg 93%
    22:00 +16°C° 0 mm 1 mps 745 mmHg 93%
    23:00 +16°C° 0 mm 1 mps 746 mmHg 94%

    Tomorrow, 14 December, Saturday

    Time Temperature Precipitation Wind Pressure Humidity
    00:00 +15°C° 0 mm 1 mps 746 mmHg 94%
    01:00 +15°C° 0 mm 1 mps 746 mmHg 94%
    02:00 +15°C° 0 mm 1 mps 746 mmHg 94%
    03:00 +15°C° 0 mm 1 mps 746 mmHg 95%
    04:00 +15°C° 0 mm 1 mps 746 mmHg 95%
    05:00 +15°C° 0 mm 2 mps 746 mmHg 96%
    06:00 +15°C° 0 mm 2 mps 747 mmHg 92%
    07:00 +16°C° 0 mm 2 mps 748 mmHg 89%
    08:00 +17°C° 0 mm 2 mps 748 mmHg 85%
    09:00 +17°C° 0 mm 2 mps 748 mmHg 81%
    10:00 +18°C° 0 mm 2 mps 749 mmHg 76%
    11:00 +19°C° 0 mm 2 mps 749 mmHg 72%
    12:00 +19°C° 0 mm 2 mps 748 mmHg 68%
    13:00 +20°C° 0 mm 2 mps 748 mmHg 64%
    14:00 +21°C° 0 mm 1 mps 747 mmHg 61%
    15:00 +20°C° 0 mm 1 mps 746 mmHg 63%
    16:00 +20°C° 0 mm 1 mps 746 mmHg 66%
    17:00 +17°C° 0 mm 0 mps 745 mmHg 69%
    18:00 +16°C° 0 mm 0 mps 746 mmHg 71%
    19:00 +16°C° 0 mm 0 mps 746 mmHg 73%
    20:00 +18°C° 0 mm 1 mps 747 mmHg 76%
    21:00 +16°C° 0 mm 1 mps 747 mmHg 77%
    22:00 +16°C° 0 mm 1 mps 747 mmHg 79%
    23:00 +16°C° 0 mm 1 mps 746 mmHg 80%

    Day after tomorrow, 15 December, Sunday

    Time Temperature Precipitation Wind Pressure Humidity
    00:00 +15°C° 0 mm 1 mps 746 mmHg 81%
    01:00 +15°C° 0 mm 1 mps 746 mmHg 83%
    02:00 +15°C° 0 mm 1 mps 746 mmHg 84%
    03:00 +15°C° 0 mm 1 mps 746 mmHg 85%
    04:00 +14°C° 0 mm 1 mps 745 mmHg 85%
    05:00 +14°C° 0 mm 1 mps 745 mmHg 86%
    06:00 +15°C° 0 mm 1 mps 746 mmHg 83%
    07:00 +15°C° 0 mm 1 mps 747 mmHg 80%
    08:00 +16°C° 0 mm 1 mps 747 mmHg 77%
    09:00 +18°C° 0 mm 1 mps 747 mmHg 69%
    10:00 +19°C° 0 mm 1 mps 747 mmHg 62%
    11:00 +20°C° 0 mm 2 mps 747 mmHg 54%
    12:00 +20°C° 0 mm 2 mps 747 mmHg 49%
    13:00 +21°C° 0 mm 2 mps 746 mmHg 45%
    14:00 +23°C° 0 mm 2 mps 745 mmHg 41%
    15:00 +21°C° 0 mm 2 mps 745 mmHg 44%
    16:00 +19°C° 0 mm 2 mps 745 mmHg 46%
    17:00 +19°C° 0 mm 1 mps 745 mmHg 49%
    18:00 +19°C° 0 mm 1 mps 745 mmHg 51%
    19:00 +18°C° 0 mm 1 mps 745 mmHg 52%
    20:00 +18°C° 0 mm 1 mps 746 mmHg 54%
    21:00 +16°C° 0 mm 1 mps 746 mmHg 55%
    22:00 +16°C° 0 mm 1 mps 746 mmHg 56%
    23:00 +15°C° 0 mm 1 mps 746 mmHg 57%

    16 December, Monday

    Time Temperature Precipitation Wind Pressure Humidity
    00:00 +15°C° 0 mm 2 mps 746 mmHg 58%
    01:00 +15°C° 0 mm 2 mps 745 mmHg 60%
    02:00 +14°C° 0 mm 2 mps 745 mmHg 61%
    03:00 +14°C° 0 mm 2 mps 745 mmHg 63%
    04:00 +14°C° 0 mm 2 mps 745 mmHg 65%
    05:00 +13°C° 0 mm 2 mps 745 mmHg 67%
    06:00 +14°C° 0 mm 2 mps 746 mmHg 66%
    07:00 +14°C° 0 mm 1 mps 746 mmHg 66%
    08:00 +15°C° 0 mm 1 mps 747 mmHg 65%
    09:00 +16°C° 0 mm 2 mps 747 mmHg 58%
    10:00 +18°C° 0 mm 2 mps 747 mmHg 52%
    11:00 +20°C° 0 mm 2 mps 747 mmHg 45%
    12:00 +21°C° 0 mm 2 mps 747 mmHg 42%
    13:00 +21°C° 0 mm 2 mps 746 mmHg 38%
    14:00 +23°C° 0 mm 2 mps 746 mmHg 35%
    15:00 +21°C° 0 mm 2 mps 745 mmHg 39%
    16:00 +19°C° 0 mm 2 mps 745 mmHg 42%
    17:00 +18°C° 0 mm 2 mps 745 mmHg 46%
    18:00 +17°C° 0 mm 2 mps 745 mmHg 47%
    19:00 +17°C° 0 mm 2 mps 745 mmHg 48%
    20:00 +16°C° 0 mm 2 mps 746 mmHg 49%
    21:00 +16°C° 0 mm 2 mps 746 mmHg 50%
    22:00 +15°C° 0 mm 2 mps 746 mmHg 51%
    23:00 +15°C° 0 mm 2 mps 746 mmHg 52%

    17 December, Tuesday

    Time Temperature Precipitation Wind Pressure Humidity
    00:00 +14°C° 0 mm 2 mps 746 mmHg 53%
    01:00 +14°C° 0 mm 2 mps 746 mmHg 54%
    02:00 +14°C° 0 mm 2 mps 745 mmHg 55%
    03:00 +13°C° 0 mm 2 mps 746 mmHg 56%
    04:00 +13°C° 0 mm 2 mps 746 mmHg 56%
    05:00 +13°C° 0 mm 2 mps 746 mmHg 57%
    06:00 +13°C° 0 mm 2 mps 747 mmHg 57%
    07:00 +14°C° 0 mm 2 mps 747 mmHg 56%
    08:00 +14°C° 0 mm 2 mps 748 mmHg 56%
    09:00 +16°C° 0 mm 2 mps 748 mmHg 51%
    10:00 +18°C° 0 mm 3 mps 748 mmHg 46%
    11:00 +19°C° 0 mm 3 mps 748 mmHg 41%
    12:00 +20°C° 0 mm 3 mps 748 mmHg 39%
    13:00 +20°C° 0 mm 3 mps 747 mmHg 36%
    14:00 +21°C° 0 mm 3 mps 746 mmHg 34%
    15:00 +20°C° 0 mm 3 mps 746 mmHg 37%
    16:00 +18°C° 0 mm 3 mps 746 mmHg 41%
    17:00 +17°C° 0 mm 2 mps 745 mmHg 45%
    18:00 +16°C° 0 mm 2 mps 746 mmHg 46%
    19:00 +16°C° 0 mm 2 mps 746 mmHg 47%
    20:00 +15°C° 0 mm 2 mps 746 mmHg 48%
    21:00 +15°C° 0 mm 2 mps 746 mmHg 49%
    22:00 +14°C° 0 mm 2 mps 746 mmHg 50%
    23:00 +13°C° 0 mm 3 mps 746 mmHg 51%

    18 December, Wednesday

    Time Temperature Precipitation Wind Pressure Humidity
    00:00 +13°C° 0 mm 2 mps 746 mmHg 52%
    01:00 +13°C° 0 mm 2 mps 746 mmHg 53%
    02:00 +13°C° 0 mm 2 mps 745 mmHg 54%
    03:00 +12°C° 0 mm 2 mps 745 mmHg 54%
    04:00 +12°C° 0 mm 2 mps 745 mmHg 55%
    05:00 +12°C° 0 mm 2 mps 745 mmHg 56%
    06:00 +12°C° 0 mm 2 mps 746 mmHg 55%
    07:00 +12°C° 0 mm 3 mps 746 mmHg 54%
    08:00 +12°C° 0 mm 3 mps 747 mmHg 54%
    09:00 +14°C° 0 mm 3 mps 747 mmHg 48%
    10:00 +17°C° 0 mm 3 mps 747 mmHg 42%
    11:00 +19°C° 0 mm 3 mps 747 mmHg 35%
    12:00 +20°C° 0 mm 3 mps 746 mmHg 33%
    13:00 +21°C° 0 mm 3 mps 746 mmHg 31%
    14:00 +22°C° 0 mm 3 mps 745 mmHg 29%
    15:00 +20°C° 0 mm 2 mps 745 mmHg 32%
    16:00 +19°C° 0 mm 2 mps 745 mmHg 35%
    17:00 +17°C° 0 mm 2 mps 745 mmHg 38%
    18:00 +18°C° 0 mm 1 mps 745 mmHg 38%
    19:00 +16°C° 0 mm 1 mps 745 mmHg 39%
    20:00 +15°C° 0 mm 1 mps 746 mmHg 40%
    21:00 +15°C° 0 mm 1 mps 746 mmHg 40%
    22:00 +15°C° 0 mm 1 mps 746 mmHg 41%
    23:00 +14°C° 0 mm 1 mps 746 mmHg 42%
    Show more